Time,TemperatureF,DewpointF,PressureIn,WindDirection,WindDirectionDegrees,WindSpeedMPH,WindSpeedGustMPH,Humidity,HourlyPrecipIn,Conditions,Clouds,dailyrainin,SoftwareType,DateUTC
2013-04-06 00:00:00,42.6,22.2,29.80,SSW,210,3.0,10.0,44,0.00,,,0.00,VWS V14.01,2013-04-06 04:00:00,
2013-04-06 00:10:00,42.4,22.0,29.80,SE,138,1.0,10.0,44,0.00,,,0.00,VWS V14.01,2013-04-06 04:10:00,
2013-04-06 00:20:00,42.2,22.4,29.81,East,101,4.0,10.0,45,0.00,,,0.00,VWS V14.01,2013-04-06 04:20:00,
2013-04-06 00:30:00,42.0,22.2,29.81,SE,138,1.0,5.0,45,0.00,,,0.00,VWS V14.01,2013-04-06 04:30:00,
2013-04-06 00:40:00,41.6,22.9,29.81,SSW,208,1.0,15.0,47,0.00,,,0.00,VWS V14.01,2013-04-06 04:40:00,
2013-04-06 00:50:00,41.3,23.1,29.83,South,186,2.0,7.0,48,0.00,,,0.00,VWS V14.01,2013-04-06 04:50:00,
2013-04-06 01:00:00,41.0,23.3,29.83,South,188,0.0,5.0,49,0.00,,,0.00,VWS V14.01,2013-04-06 05:00:00,
2013-04-06 01:10:00,40.7,23.5,29.83,SW,227,0.0,6.0,50,0.00,,,0.00,VWS V14.01,2013-04-06 05:10:00,
2013-04-06 01:20:00,40.2,23.5,29.84,SW,225,3.0,4.0,51,0.00,,,0.00,VWS V14.01,2013-04-06 05:20:00,
2013-04-06 01:30:00,39.7,23.5,29.84,SSW,200,1.0,6.0,52,0.00,,,0.00,VWS V14.01,2013-04-06 05:30:00,
2013-04-06 01:40:00,39.4,24.1,29.84,SSW,213,1.0,8.0,54,0.00,,,0.00,VWS V14.01,2013-04-06 05:40:00,
2013-04-06 01:50:00,39.3,23.6,29.85,SSE,161,0.0,10.0,53,0.00,,,0.00,VWS V14.01,2013-04-06 05:50:00,
2013-04-06 02:00:00,39.2,23.5,29.86,SW,227,3.0,9.0,53,0.00,,,0.00,VWS V14.01,2013-04-06 06:00:00,
2013-04-06 02:10:00,39.1,23.4,29.86,South,169,3.0,12.0,53,0.00,,,0.00,VWS V14.01,2013-04-06 06:10:00,
2013-04-06 02:20:00,39.0,23.8,29.87,SW,234,1.0,7.0,54,0.00,,,0.00,VWS V14.01,2013-04-06 06:20:00,
2013-04-06 02:30:00,38.8,24.0,29.87,South,180,2.0,7.0,55,0.00,,,0.00,VWS V14.01,2013-04-06 06:30:00,
2013-04-06 02:40:00,38.6,24.3,29.87,SSW,202,3.0,4.0,56,0.00,,,0.00,VWS V14.01,2013-04-06 06:40:00,
2013-04-06 02:50:00,38.0,24.1,29.88,SSW,207,0.0,4.0,57,0.00,,,0.00,VWS V14.01,2013-04-06 06:50:00,
2013-04-06 03:00:00,37.1,24.1,29.89,SSW,207,0.0,3.0,59,0.00,,,0.00,VWS V14.01,2013-04-06 07:00:00,
2013-04-06 03:10:00,36.2,24.1,29.89,SSW,207,2.0,3.0,61,0.00,,,0.00,VWS V14.01,2013-04-06 07:10:00,
2013-04-06 03:20:00,35.4,23.7,29.89,SSW,207,0.0,2.0,62,0.00,,,0.00,VWS V14.01,2013-04-06 07:20:00,
2013-04-06 03:30:00,34.9,24.0,29.89,SSW,207,0.0,2.0,64,0.00,,,0.00,VWS V14.01,2013-04-06 07:30:00,
2013-04-06 03:40:00,34.4,23.5,29.89,SSW,207,1.0,2.0,64,0.00,,,0.00,VWS V14.01,2013-04-06 07:40:00,
2013-04-06 03:50:00,34.6,23.7,29.90,SSW,207,1.0,2.0,64,0.00,,,0.00,VWS V14.01,2013-04-06 07:50:00,
2013-04-06 04:00:00,34.9,24.0,29.92,WSW,240,0.0,4.0,64,0.00,,,0.00,VWS V14.01,2013-04-06 08:00:00,
2013-04-06 04:10:00,34.7,23.8,29.92,WSW,240,1.0,2.0,64,0.00,,,0.00,VWS V14.01,2013-04-06 08:10:00,
2013-04-06 04:20:00,33.9,23.0,29.92,WSW,240,0.0,1.0,64,0.00,,,0.00,VWS V14.01,2013-04-06 08:20:00,
2013-04-06 04:30:00,33.1,23.0,29.93,WSW,240,1.0,1.0,66,0.00,,,0.00,VWS V14.01,2013-04-06 08:30:00,
2013-04-06 04:40:00,32.9,22.8,29.93,SW,223,2.0,6.0,66,0.00,,,0.00,VWS V14.01,2013-04-06 08:40:00,
2013-04-06 04:50:00,34.0,21.6,29.94,SSW,205,2.0,6.0,60,0.00,,,0.00,VWS V14.01,2013-04-06 08:50:00,
2013-04-06 05:00:00,35.4,22.1,29.94,WSW,240,1.0,10.0,58,0.00,,,0.00,VWS V14.01,2013-04-06 09:00:00,
2013-04-06 05:10:00,35.9,21.3,29.94,SE,127,1.0,7.0,55,0.00,,,0.00,VWS V14.01,2013-04-06 09:10:00,
2013-04-06 05:20:00,36.3,20.8,29.95,SSW,199,4.0,16.0,53,0.00,,,0.00,VWS V14.01,2013-04-06 09:20:00,
2013-04-06 05:30:00,36.5,21.0,29.97,SW,232,2.0,13.0,53,0.00,,,0.00,VWS V14.01,2013-04-06 09:30:00,
2013-04-06 05:40:00,36.7,21.2,29.97,SSW,205,4.0,11.0,53,0.00,,,0.00,VWS V14.01,2013-04-06 09:40:00,
2013-04-06 05:50:00,36.5,21.5,29.98,SSE,163,1.0,6.0,54,0.00,,,0.00,VWS V14.01,2013-04-06 09:50:00,
2013-04-06 06:00:00,36.3,21.7,29.99,SSE,153,0.0,8.0,55,0.00,,,0.00,VWS V14.01,2013-04-06 10:00:00,
2013-04-06 06:10:00,36.5,22.3,29.99,SW,223,2.0,6.0,56,0.00,,,0.00,VWS V14.01,2013-04-06 10:10:00,
2013-04-06 06:20:00,36.4,21.8,30.00,ENE,62,1.0,3.0,55,0.00,,,0.00,VWS V14.01,2013-04-06 10:20:00,
2013-04-06 06:30:00,36.1,21.5,30.01,NNE,30,2.0,7.0,55,0.00,,,0.00,VWS V14.01,2013-04-06 10:30:00,
2013-04-06 06:40:00,35.7,18.4,30.01,WSW,247,6.0,17.0,49,0.00,,,0.00,VWS V14.01,2013-04-06 10:40:00,
2013-04-06 06:50:00,35.5,16.8,30.02,WSW,245,6.0,14.0,46,0.00,,,0.00,VWS V14.01,2013-04-06 10:50:00,
2013-04-06 07:00:00,35.3,17.1,30.03,SE,138,1.0,14.0,47,0.00,,,0.00,VWS V14.01,2013-04-06 11:00:00,
2013-04-06 07:10:00,35.2,16.5,30.03,SSW,209,2.0,9.0,46,0.00,,,0.00,VWS V14.01,2013-04-06 11:10:00,
2013-04-06 07:20:00,35.2,15.5,30.04,NE,38,4.0,11.0,44,0.00,,,0.00,VWS V14.01,2013-04-06 11:20:00,
2013-04-06 07:30:00,35.2,15.0,30.05,SW,234,1.0,14.0,43,0.00,,,0.00,VWS V14.01,2013-04-06 11:30:00,
2013-04-06 07:40:00,35.2,13.9,30.05,SW,223,4.0,12.0,41,0.00,,,0.00,VWS V14.01,2013-04-06 11:40:00,
2013-04-06 07:50:00,35.3,13.4,30.06,SE,124,1.0,11.0,40,0.00,,,0.00,VWS V14.01,2013-04-06 11:50:00,
2013-04-06 08:00:00,35.3,14.0,30.07,WNW,299,6.0,21.0,41,0.00,,,0.00,VWS V14.01,2013-04-06 12:00:00,
2013-04-06 08:10:00,35.5,13.6,30.07,ESE,111,3.0,14.0,40,0.00,,,0.00,VWS V14.01,2013-04-06 12:10:00,
2013-04-06 08:20:00,35.5,13.0,30.08,NE,43,2.0,21.0,39,0.00,,,0.00,VWS V14.01,2013-04-06 12:20:00,
2013-04-06 08:30:00,35.6,13.1,30.09,West,277,3.0,11.0,39,0.00,,,0.00,VWS V14.01,2013-04-06 12:30:00,
2013-04-06 08:40:00,35.8,13.9,30.09,ENE,61,4.0,9.0,40,0.00,,,0.00,VWS V14.01,2013-04-06 12:40:00,
2013-04-06 08:50:00,36.1,13.6,30.09,ENE,74,2.0,9.0,39,0.00,,,0.00,VWS V14.01,2013-04-06 12:50:00,
2013-04-06 09:00:00,36.5,13.3,30.10,East,82,1.0,10.0,38,0.00,,,0.00,VWS V14.01,2013-04-06 13:00:00,
2013-04-06 09:10:00,36.7,13.5,30.10,SSW,212,3.0,14.0,38,0.00,,,0.00,VWS V14.01,2013-04-06 13:10:00,
2013-04-06 09:20:00,36.8,12.4,30.10,NE,37,3.0,14.0,36,0.00,,,0.00,VWS V14.01,2013-04-06 13:20:00,
2013-04-06 09:30:00,37.0,11.9,30.10,South,182,2.0,10.0,35,0.00,,,0.00,VWS V14.01,2013-04-06 13:30:00,
2013-04-06 09:40:00,37.1,12.6,30.10,SSW,209,3.0,12.0,36,0.00,,,0.00,VWS V14.01,2013-04-06 13:40:00,
2013-04-06 09:50:00,37.5,12.4,30.11,NE,48,2.0,8.0,35,0.00,,,0.00,VWS V14.01,2013-04-06 13:50:00,
2013-04-06 10:00:00,37.8,10.6,30.11,SW,232,13.0,13.0,32,0.00,,,0.00,VWS V14.01,2013-04-06 14:00:00,
2013-04-06 10:10:00,37.9,10.7,30.11,North,355,3.0,15.0,32,0.00,,,0.00,VWS V14.01,2013-04-06 14:10:00,
2013-04-06 10:20:00,38.2,11.6,30.12,ESE,113,2.0,12.0,33,0.00,,,0.00,VWS V14.01,2013-04-06 14:20:00,
2013-04-06 10:30:00,38.3,11.7,30.12,East,88,1.0,14.0,33,0.00,,,0.00,VWS V14.01,2013-04-06 14:30:00,
2013-04-06 10:40:00,38.7,10.7,30.12,NW,317,3.0,13.0,31,0.00,,,0.00,VWS V14.01,2013-04-06 14:40:00,
2013-04-06 10:50:00,38.8,10.8,30.13,East,80,4.0,11.0,31,0.00,,,0.00,VWS V14.01,2013-04-06 14:50:00,
2013-04-06 11:00:00,39.1,12.4,30.13,South,180,1.0,10.0,33,0.00,,,0.00,VWS V14.01,2013-04-06 15:00:00,
2013-04-06 11:10:00,39.3,11.2,30.13,ENE,60,1.0,17.0,31,0.00,,,0.00,VWS V14.01,2013-04-06 15:10:00,
2013-04-06 11:20:00,39.4,12.0,30.14,SW,224,7.0,10.0,32,0.00,,,0.00,VWS V14.01,2013-04-06 15:20:00,
2013-04-06 11:30:00,39.5,9.9,30.14,SW,221,12.0,14.0,29,0.00,,,0.00,VWS V14.01,2013-04-06 15:30:00,
2013-04-06 11:40:00,39.8,9.4,30.14,SSW,210,4.0,16.0,28,0.00,,,0.00,VWS V14.01,2013-04-06 15:40:00,
2013-04-06 11:50:00,40.4,10.7,30.14,South,182,1.0,10.0,29,0.00,,,0.00,VWS V14.01,2013-04-06 15:50:00,
2013-04-06 12:00:00,40.0,11.1,30.13,SSW,213,4.0,11.0,30,0.00,,,0.00,VWS V14.01,2013-04-06 16:00:00,
2013-04-06 12:10:00,40.4,10.7,30.13,East,86,2.0,15.0,29,0.00,,,0.00,VWS V14.01,2013-04-06 16:10:00,
2013-04-06 12:20:00,40.8,10.2,30.14,West,276,2.0,12.0,28,0.00,,,0.00,VWS V14.01,2013-04-06 16:20:00,
2013-04-06 12:30:00,41.1,9.7,30.14,South,182,1.0,10.0,27,0.00,,,0.00,VWS V14.01,2013-04-06 16:30:00,
2013-04-06 12:40:00,41.6,10.9,30.14,West,275,2.0,5.0,28,0.00,,,0.00,VWS V14.01,2013-04-06 16:40:00,
2013-04-06 12:50:00,42.0,9.6,30.14,SW,225,2.0,10.0,26,0.00,,,0.00,VWS V14.01,2013-04-06 16:50:00,
2013-04-06 13:00:00,42.3,9.0,30.13,ESE,122,3.0,11.0,25,0.00,,,0.00,VWS V14.01,2013-04-06 17:00:00,
2013-04-06 13:10:00,42.2,8.0,30.13,NE,50,4.0,13.0,24,0.00,,,0.00,VWS V14.01,2013-04-06 17:10:00,
2013-04-06 13:20:00,42.5,8.3,30.13,SW,232,1.0,17.0,24,0.00,,,0.00,VWS V14.01,2013-04-06 17:20:00,
2013-04-06 13:30:00,42.7,7.5,30.13,SW,234,5.0,12.0,23,0.00,,,0.00,VWS V14.01,2013-04-06 17:30:00,
2013-04-06 13:40:00,43.4,8.1,30.13,South,171,4.0,9.0,23,0.00,,,0.00,VWS V14.01,2013-04-06 17:40:00,
2013-04-06 13:50:00,44.0,8.6,30.13,WSW,257,5.0,11.0,23,0.00,,,0.00,VWS V14.01,2013-04-06 17:50:00,
2013-04-06 14:00:00,44.2,9.7,30.13,WSW,251,3.0,10.0,24,0.00,,,0.00,VWS V14.01,2013-04-06 18:00:00,
2013-04-06 14:10:00,44.3,8.9,30.13,East,95,0.0,12.0,23,0.00,,,0.00,VWS V14.01,2013-04-06 18:10:00,
2013-04-06 14:20:00,44.5,10.9,30.13,WSW,245,2.0,7.0,25,0.00,,,0.00,VWS V14.01,2013-04-06 18:20:00,
2013-04-06 14:30:00,45.2,9.6,30.13,West,281,6.0,12.0,23,0.00,,,0.00,VWS V14.01,2013-04-06 18:30:00,
2013-04-06 14:40:00,45.9,8.2,30.13,WSW,250,2.0,11.0,21,0.00,,,0.00,VWS V14.01,2013-04-06 18:40:00,
2013-04-06 14:50:00,46.1,8.4,30.13,West,264,4.0,11.0,21,0.00,,,0.00,VWS V14.01,2013-04-06 18:50:00,
2013-04-06 15:00:00,45.9,8.2,30.12,ESE,122,1.0,8.0,21,0.00,,,0.00,VWS V14.01,2013-04-06 19:00:00,
2013-04-06 15:10:00,46.3,7.4,30.12,SW,229,2.0,13.0,20,0.00,,,0.00,VWS V14.01,2013-04-06 19:10:00,
2013-04-06 15:20:00,46.5,7.6,30.12,ENE,67,2.0,10.0,20,0.00,,,0.00,VWS V14.01,2013-04-06 19:20:00,
2013-04-06 15:30:00,46.8,10.0,30.12,ENE,65,0.0,7.0,22,0.00,,,0.00,VWS V14.01,2013-04-06 19:30:00,
2013-04-06 15:40:00,47.3,7.1,30.12,West,264,2.0,10.0,19,0.00,,,0.00,VWS V14.01,2013-04-06 19:40:00,
2013-04-06 15:50:00,48.1,6.6,30.12,NW,311,1.0,14.0,18,0.00,,,0.00,VWS V14.01,2013-04-06 19:50:00,
2013-04-06 16:00:00,47.9,9.9,30.12,SW,234,6.0,10.0,21,0.00,,,0.00,VWS V14.01,2013-04-06 20:00:00,
2013-04-06 16:10:00,48.8,8.4,30.12,ESE,120,2.0,9.0,19,0.00,,,0.00,VWS V14.01,2013-04-06 20:10:00,
2013-04-06 16:20:00,49.0,7.4,30.12,WSW,244,2.0,8.0,18,0.00,,,0.00,VWS V14.01,2013-04-06 20:20:00,
2013-04-06 16:30:00,48.8,9.5,30.12,West,259,1.0,10.0,20,0.00,,,0.00,VWS V14.01,2013-04-06 20:30:00,
2013-04-06 16:40:00,49.7,10.3,30.12,East,92,1.0,7.0,20,0.00,,,0.00,VWS V14.01,2013-04-06 20:40:00,
2013-04-06 16:50:00,50.3,10.8,30.13,SW,226,3.0,6.0,20,0.00,,,0.00,VWS V14.01,2013-04-06 20:50:00,
2013-04-06 17:00:00,50.4,23.1,30.13,WNW,303,2.0,10.0,34,0.00,,,0.00,VWS V14.01,2013-04-06 21:00:00,
2013-04-06 17:10:00,50.4,21.7,30.13,North,355,1.0,5.0,32,0.00,,,0.00,VWS V14.01,2013-04-06 21:10:00,
2013-04-06 17:20:00,49.8,23.9,30.14,West,263,2.0,6.0,36,0.00,,,0.00,VWS V14.01,2013-04-06 21:20:00,
2013-04-06 17:30:00,49.3,22.8,30.15,North,5,3.0,7.0,35,0.00,,,0.00,VWS V14.01,2013-04-06 21:30:00,
2013-04-06 17:40:00,48.5,21.4,30.15,West,273,1.0,6.0,34,0.00,,,0.00,VWS V14.01,2013-04-06 21:40:00,
2013-04-06 17:50:00,48.4,19.9,30.15,NNW,328,4.0,6.0,32,0.00,,,0.00,VWS V14.01,2013-04-06 21:50:00,
2013-04-06 18:00:00,48.4,22.0,30.15,West,261,2.0,7.0,35,0.00,,,0.00,VWS V14.01,2013-04-06 22:00:00,
2013-04-06 18:10:00,48.4,19.2,30.15,WSW,254,0.0,5.0,31,0.00,,,0.00,VWS V14.01,2013-04-06 22:10:00,
2013-04-06 18:20:00,47.6,19.2,30.16,SW,234,2.0,9.0,32,0.00,,,0.00,VWS V14.01,2013-04-06 22:20:00,
2013-04-06 18:30:00,47.0,20.8,30.16,WSW,252,0.0,3.0,35,0.00,,,0.00,VWS V14.01,2013-04-06 22:30:00,
2013-04-06 18:40:00,46.2,20.7,30.16,WNW,302,1.0,3.0,36,0.00,,,0.00,VWS V14.01,2013-04-06 22:40:00,
2013-04-06 18:50:00,45.5,22.0,30.17,West,281,2.0,3.0,39,0.00,,,0.00,VWS V14.01,2013-04-06 22:50:00,
2013-04-06 19:00:00,44.5,21.1,30.17,SW,232,1.0,2.0,39,0.00,,,0.00,VWS V14.01,2013-04-06 23:00:00,
2013-04-06 19:10:00,43.9,20.6,30.17,West,271,0.0,2.0,39,0.00,,,0.00,VWS V14.01,2013-04-06 23:10:00,
2013-04-06 19:20:00,43.1,20.4,30.17,West,276,0.0,1.0,40,0.00,,,0.00,VWS V14.01,2013-04-06 23:20:00,
2013-04-06 19:30:00,42.5,21.0,30.17,West,275,0.0,1.0,42,0.00,,,0.00,VWS V14.01,2013-04-06 23:30:00,
2013-04-06 19:40:00,41.6,23.4,30.17,WNW,292,0.0,2.0,48,0.00,,,0.00,VWS V14.01,2013-04-06 23:40:00,
2013-04-06 19:50:00,40.8,24.5,30.17,WNW,292,0.0,2.0,52,0.00,,,0.00,VWS V14.01,2013-04-06 23:50:00,
2013-04-06 20:00:00,40.4,25.1,30.18,WNW,292,1.0,1.0,54,0.00,,,0.00,VWS V14.01,2013-04-07 00:00:00,
2013-04-06 20:10:00,40.2,25.8,30.18,WNW,292,0.0,1.0,56,0.00,,,0.00,VWS V14.01,2013-04-07 00:10:00,
2013-04-06 20:20:00,39.6,26.5,30.18,WNW,292,0.0,1.0,59,0.00,,,0.00,VWS V14.01,2013-04-07 00:20:00,
2013-04-06 20:30:00,38.7,25.6,30.18,WNW,292,0.0,1.0,59,0.00,,,0.00,VWS V14.01,2013-04-07 00:30:00,
2013-04-06 20:40:00,38.4,26.1,30.18,WNW,292,0.0,1.0,61,0.00,,,0.00,VWS V14.01,2013-04-07 00:40:00,
2013-04-06 20:50:00,37.5,25.3,30.18,WNW,292,0.0,1.0,61,0.00,,,0.00,VWS V14.01,2013-04-07 00:50:00,
2013-04-06 21:00:00,37.1,26.1,30.19,WNW,292,0.0,1.0,64,0.00,,,0.00,VWS V14.01,2013-04-07 01:00:00,
2013-04-06 21:10:00,37.0,26.3,30.19,WNW,292,0.0,1.0,65,0.00,,,0.00,VWS V14.01,2013-04-07 01:10:00,
2013-04-06 21:20:00,36.4,26.1,30.19,WNW,292,0.0,1.0,66,0.00,,,0.00,VWS V14.01,2013-04-07 01:20:00,
2013-04-06 21:30:00,36.4,26.5,30.20,WNW,292,0.0,1.0,67,0.00,,,0.00,VWS V14.01,2013-04-07 01:30:00,
2013-04-06 21:40:00,37.0,27.1,30.20,WNW,292,0.0,1.0,67,0.00,,,0.00,VWS V14.01,2013-04-07 01:40:00,
2013-04-06 21:50:00,36.8,27.2,30.20,WNW,292,1.0,1.0,68,0.00,,,0.00,VWS V14.01,2013-04-07 01:50:00,
2013-04-06 22:00:00,38.6,27.9,30.19,WNW,292,0.0,1.0,65,0.00,,,0.00,VWS V14.01,2013-04-07 02:00:00,
2013-04-06 22:10:00,38.6,26.3,30.19,WNW,292,0.0,1.0,61,0.00,,,0.00,VWS V14.01,2013-04-07 02:10:00,
2013-04-06 22:20:00,37.1,26.4,30.19,WNW,292,0.0,1.0,65,0.00,,,0.00,VWS V14.01,2013-04-07 02:20:00,
2013-04-06 22:30:00,37.2,27.6,30.18,WNW,292,0.0,1.0,68,0.00,,,0.00,VWS V14.01,2013-04-07 02:30:00,
2013-04-06 22:40:00,37.1,26.8,30.18,WNW,292,0.0,1.0,66,0.00,,,0.00,VWS V14.01,2013-04-07 02:40:00,
2013-04-06 22:50:00,35.0,26.6,30.18,WNW,292,0.0,1.0,71,0.00,,,0.00,VWS V14.01,2013-04-07 02:50:00,
2013-04-06 23:00:00,34.2,26.1,30.19,WNW,292,0.0,1.0,72,0.00,,,0.00,VWS V14.01,2013-04-07 03:00:00,
2013-04-06 23:10:00,33.2,25.5,30.19,WNW,292,0.0,1.0,73,0.00,,,0.00,VWS V14.01,2013-04-07 03:10:00,
2013-04-06 23:20:00,32.9,26.2,30.19,WNW,292,0.0,1.0,76,0.00,,,0.00,VWS V14.01,2013-04-07 03:20:00,
2013-04-06 23:30:00,32.5,26.4,30.19,WNW,292,0.0,1.0,78,0.00,,,0.00,VWS V14.01,2013-04-07 03:30:00,
2013-04-06 23:40:00,32.3,25.9,30.19,WNW,292,0.0,1.0,77,0.00,,,0.00,VWS V14.01,2013-04-07 03:40:00,
2013-04-06 23:50:00,32.1,25.7,30.19,WNW,292,0.0,1.0,77,0.00,,,0.00,VWS V14.01,2013-04-07 03:50:00,